Temp
14 14 14 14 14 14 14 15 15 16 17 17 17 17 16 16 15 15 14 13 13 12
12 13 13 13 13 13 13 13 14 13 14 15 15 15 15 15 14 14 14 13 13 11
11 11 12 12 11 11 11 11 12 12 11 12 13 13 14 14 13 13 13 13 12 12
10 10 10 10 9 9 10 10 10 10 10 10 10 11 12 12 12 12 12 11 11 11
8 8 8 8 8 8 8 8 8 8 8 9 9 9 9 9 9 9 9 9 9 9
6 6 5 5 6 6 6 6 6 7 8 8 8 7 7 6 7 7 6 6 5 5
4 4 3 3 4 4 4 5 4 4 5 6 5 6 5 6 6 5 4 4 3 3
3 2 2 2 2 3 3 3 3 2 2 3 3 3 3 3 3 2 1 1 1 1
2 2 1 1 1 2 2 1 1 1 1 1 1 1 1 2 1 1 0 0 0 0
1 1 1 1 1 1 1 1 1 0 0 1 1 0 0 1 0 -0 -1 -0 -0 -0
0 0 -0 0 0 -0 -0 -1 -1 -0 -0 -0 -0 -0 0 0 0 -0 -1 -1 -1 -1
-0 -0 -0 -0 -1 -1 -1 -1 -1 -1 -1 -0 -1 -1 -0 -0 -1 -1 -1 -1 -2 -2
-1 -0 -0 -1 -1 -1 -2 -2 -1 -1 -1 -1 -1 -1 -1 -1 -1 -1 -2 -2 -2 -2
-1 -1 -1 -1 -1 0 -0 -0 -1 -1 -1 -1 -1 -1 -1 -1 -1 -2 -2 -2 -2 -3
Height
789 788 787 786 785 785 784 783 783 781 781 780 780 781 781 782 783 783 783 783 782 782
788 787 786 785 784 783 783 781 780 779 778 778 777 778 779 779 780 779 778 778 779 779
787 785 785 784 782 782 781 780 778 777 776 776 776 775 775 777 777 776 775 775 775 775
787 786 784 784 783 781 781 779 777 776 774 774 773 773 773 774 774 773 773 773 772 772
786 786 784 783 782 781 780 780 778 776 774 773 771 772 772 771 771 772 772 771 770 770
787 786 784 782 781 781 781 779 778 776 773 773 773 772 771 771 769 772 771 770 770 771
786 784 784 783 782 782 780 778 777 777 776 774 773 772 772 771 770 771 773 772 772 772
786 785 785 784 784 782 780 780 780 780 778 776 774 774 773 772 771 772 775 775 776 776
787 787 786 786 785 785 784 783 783 783 781 779 779 778 774 774 775 777 779 780 779 778
786 786 787 788 787 787 786 786 786 786 784 783 782 781 781 779 779 782 783 784 782 780
789 789 789 789 789 789 789 789 789 788 787 786 787 786 784 784 784 785 786 786 785 784
790 791 792 791 791 790 792 792 791 791 792 790 790 789 788 788 788 788 788 789 788 787
792 793 794 794 792 793 794 794 794 794 794 794 793 793 792 791 790 790 790 790 790 789
793 793 795 795 795 795 796 797 796 797 797 797 796 795 793 791 791 790 790 789 789 789
Wind_Speed
9 8 6 7 7 7 7 7 8 9 9 9 16 19 19 21 24 27 27 30 33 37
10 9 9 8 7 8 9 10 10 10 8 6 8 12 15 18 19 22 23 25 28 26
9 8 8 6 7 7 9 10 10 10 10 8 8 8 10 15 17 18 18 17 18 23
8 7 6 6 7 9 10 11 11 11 10 9 9 11 11 13 14 16 17 16 15 18
6 6 6 7 8 8 8 9 10 10 8 8 9 8 7 7 8 9 11 11 11 12
7 7 9 9 9 7 6 7 8 9 10 8 7 7 5 5 5 7 6 6 6 7
8 9 9 9 9 8 8 8 9 8 6 6 7 6 6 4 4 5 5 5 3 4
8 8 9 10 10 10 11 12 10 9 11 12 12 9 7 7 7 7 6 6 6 5
7 7 8 9 10 11 12 13 14 14 15 18 16 12 13 11 12 12 12 12 12 13
6 7 8 9 11 12 13 13 14 16 18 18 17 16 14 14 15 14 12 10 10 10
7 8 10 13 13 14 15 15 15 16 16 18 15 14 13 13 12 12 11 9 9 8
9 12 12 13 14 13 12 13 14 14 13 14 14 12 13 12 11 11 11 10 10 8
12 13 13 13 13 12 12 12 14 15 14 12 13 10 9 8 8 9 7 6 5 7
12 13 12 11 11 12 12 10 9 9 8 8 8 9 9 8 7 6 4 4 5 5
Wind_Direction
18 16 10 2 355 352 359 346 328 326 301 277 271 270 269 279 278 279 270 258 244 237
15 20 15 6 356 333 320 317 316 321 327 300 267 271 270 283 293 290 286 278 258 243
32 30 35 51 35 355 337 331 325 328 326 314 302 296 290 289 288 287 285 284 275 253
31 32 37 34 18 5 339 339 343 341 348 345 336 319 295 288 286 284 284 281 273 262
19 6 9 11 9 5 0 355 357 356 356 357 348 329 310 303 302 293 287 287 278 259
25 17 17 16 17 15 12 19 18 6 3 356 343 340 346 344 344 324 313 306 304 291
36 34 29 28 30 32 32 29 23 30 35 41 30 19 10 358 357 325 320 320 307 287
40 39 42 45 42 47 54 56 58 62 66 62 55 50 54 62 68 70 65 68 71 68
54 56 53 58 65 70 74 78 82 79 73 69 65 64 66 76 86 90 96 98 100 101
68 70 76 90 88 84 85 91 86 84 76 72 66 66 71 84 93 97 94 92 91 85
94 103 106 103 99 96 93 88 88 83 82 79 70 71 73 81 86 88 81 72 66 63
109 114 115 112 111 105 100 96 89 90 89 88 79 71 69 75 80 81 78 71 57 47
128 126 122 122 114 111 102 97 95 89 85 77 75 57 56 61 66 71 66 56 48 41
128 128 131 127 114 102 100 100 100 96 90 74 67 69 62 53 44 40 29 14 358 354